Zeynalabdin Tagiyev — 9HLD8 — position and weather

sailwx.info

Track history (hours):
 
Tides and Currents Weather Stations Pressure Air Temp Water Temp Dewpoint Dewpoint Depression Visibility Wind Speed Wind Dir Waves Ship Positions

Zeynalabdin Tagiyev

Last reported at 2014-Jul-29 00:18 UTC. Time now 2014-Jul-30 13:13 UTC.
Position N 49°37' W 000°37'.

Length 140 m; draft 4.8 m.

Type: Cargo ship. MMSI: 256107000.

Date/timePositionNaut miles runAvg speedWind from/ knotsBaromVisibWave heightAir tempDewpointWater temp
2014-Jul-29 00:18N 49°37' W 000°37'7 9.4
2014-Jul-28 23:32N 49°35' W 000°27'9 8.7
2014-Jul-28 22:33N 49°31' W 000°15'9 8.7
2014-Jul-28 21:33N 49°28' W 000°02'8 8.3
2014-Jul-28 20:33N 49°26' E 000°10'7 7.0
2014-Jul-28 19:33N 49°26' E 000°21'10 9.5
2014-Jul-28 18:29N 49°26' E 000°37'  
2014-Jul-26 07:23N 49°29' E 000°31'1112.7
2014-Jul-26 06:33N 49°26' E 000°16'1211.6
2014-Jul-26 05:34N 49°28' W 000°02'3 2.9
2014-Jul-26 04:33N 49°28' W 000°06'0 0.0
2014-Jul-26 03:24N 49°29' W 000°06'0 0.0
2014-Jul-26 02:26N 49°29' W 000°06'0 0.0
2014-Jul-26 01:32N 49°29' W 000°06'0 0.0
2014-Jul-26 00:33N 49°28' W 000°06'0 0.0
2014-Jul-25 23:28N 49°28' W 000°06'0 0.1
2014-Jul-25 22:31N 49°28' W 000°06'0 0.1
2014-Jul-25 21:33N 49°29' W 000°06'4 3.7
2014-Jul-25 20:33N 49°31' W 000°11'1010.0
2014-Jul-25 19:33N 49°38' W 000°21'1111.0
2014-Jul-25 18:33N 49°49' W 000°26'5310.5
2014-Jul-25 13:32N 50°33' E 000°20'1111.5
2014-Jul-25 12:33N 50°36' E 000°37'1110.6
2014-Jul-25 11:28N 50°43' E 000°52'2410.0
2014-Jul-25 09:05N 50°57' E 001°21'611.0
2014-Jul-25 08:33N 51°02' E 001°28'1312.6
2014-Jul-25 07:33N 51°11' E 001°41'1313.2
2014-Jul-25 06:33N 51°22' E 001°53'1212.4
2014-Jul-25 05:34N 51°31' E 002°06'1111.1
2014-Jul-25 04:33N 51°40' E 002°17'1010.3
2014-Jul-25 03:33N 51°48' E 002°27'9 9.3
2014-Jul-25 02:33N 51°55' E 002°37'9 9.0
2014-Jul-25 01:33N 52°02' E 002°46'22 9.1
2014-Jul-24 23:07N 52°19' E 003°10'610.3
2014-Jul-24 22:32N 52°24' E 003°16'1310.9
2014-Jul-24 21:23N 52°34' E 003°27'911.4
2014-Jul-24 20:33N 52°42' E 003°36'1311.5
2014-Jul-24 19:28N 52°51' E 003°50'1011.0
2014-Jul-24 18:32N 52°58' E 004°03'1010.3
2014-Jul-24 17:33N 53°05' E 004°15'21 9.2
2014-Jul-24 15:16N 53°23' E 004°33'7 9.5
2014-Jul-24 14:33N 53°29' E 004°39'1010.2
2014-Jul-24 13:33N 53°33' E 004°55'1111.4
2014-Jul-24 12:33N 53°37' E 005°13'1211.9
2014-Jul-24 11:32N 53°40' E 005°33'1211.6
2014-Jul-24 10:32N 53°44' E 005°51'1111.0
2014-Jul-24 09:32N 53°47' E 006°09'1510.1
2014-Jul-24 08:05N 53°51' E 006°33'6 9.6
2014-Jul-24 07:27N 53°53' E 006°43'20 9.3
2014-Jul-24 05:19N 53°58' E 007°15'7 9.7
2014-Jul-24 04:33N 53°60' E 007°27'7 7.4
2014-Jul-24 03:33N 54°07' E 007°29'10 9.9
2014-Jul-24 02:33N 54°17' E 007°25'10 9.9
2014-Jul-24 01:33N 54°27' E 007°24'10 9.6
2014-Jul-24 00:33N 54°36' E 007°23'9 9.4
2014-Jul-23 23:33N 54°46' E 007°22'1817.0
2014-Jul-23 22:31N 55°03' E 007°20'1818.1
2014-Jul-23 21:30N 55°22' E 007°18'0 0.2
2014-Jul-23 20:19N 55°22' E 007°18'19 9.0
2014-Jul-23 18:15N 55°41' E 007°16'14210.1
2014-Jul-23 04:11N 58°00' E 006°29'6 9.6
2014-Jul-23 03:33N 58°05' E 006°22'10 9.7
2014-Jul-23 02:33N 58°12' E 006°09'10 9.8
2014-Jul-23 01:33N 58°19' E 005°56'1110.0
2014-Jul-23 00:29N 58°26' E 005°42'10 9.7
2014-Jul-22 23:26N 58°35' E 005°31'910.0
2014-Jul-22 22:34N 58°43' E 005°25'1010.1
2014-Jul-22 21:33N 58°53' E 005°31'1010.0
2014-Jul-22 20:34N 59°02' E 005°36'7 6.6
2014-Jul-22 19:33N 58°59' E 005°47'1 0.7
2014-Jul-22 18:32N 58°58' E 005°45'0 0.0
2014-Jul-22 17:33N 58°58' E 005°45'0 0.0
2014-Jul-22 16:31N 58°58' E 005°45'0 0.0
2014-Jul-22 15:31N 58°58' E 005°45'0 0.0
2014-Jul-22 14:33N 58°58' E 005°45'0 0.0
2014-Jul-22 13:33N 58°58' E 005°45'0 0.0
2014-Jul-22 12:33N 58°58' E 005°45'0 0.0
2014-Jul-22 11:30N 58°58' E 005°45'0 0.0
2014-Jul-22 10:32N 58°58' E 005°45'0 0.0
2014-Jul-22 09:33N 58°58' E 005°45'0 0.0
2014-Jul-22 08:31N 58°58' E 005°45'0 0.0
2014-Jul-22 07:30N 58°58' E 005°45'0 0.0
2014-Jul-22 06:33N 58°58' E 005°45'0 0.0
2014-Jul-22 05:32N 58°58' E 005°45'0 0.0
2014-Jul-22 04:32N 58°58' E 005°45'0 0.0
2014-Jul-22 03:32N 58°58' E 005°45'0 0.0
2014-Jul-22 02:31N 58°58' E 005°45'0 0.0
2014-Jul-22 01:28N 58°58' E 005°45'0 0.0
2014-Jul-22 00:31N 58°58' E 005°45'0 0.0
2014-Jul-21 23:29N 58°58' E 005°45'0 0.0
2014-Jul-21 22:33N 58°58' E 005°45'0 0.0
2014-Jul-21 21:31N 58°58' E 005°45'0 0.0
2014-Jul-21 20:31N 58°58' E 005°45'0 0.0
2014-Jul-21 20:16N 58°58' E 005°45'0 0.0
2014-Jul-21 19:32N 58°58' E 005°45'0 0.0
2014-Jul-21 18:33N 58°58' E 005°45'0 0.0
2014-Jul-21 17:33N 58°58' E 005°45'0 0.0
2014-Jul-21 16:32N 58°58' E 005°45'0 0.0
2014-Jul-21 15:31N 58°58' E 005°45'0 0.0
2014-Jul-21 14:32N 58°58' E 005°45'0 0.0
2014-Jul-21 13:31N 58°58' E 005°45'0 0.0
2014-Jul-21 12:31N 58°58' E 005°45'0 0.0
2014-Jul-21 11:32N 58°58' E 005°45'0 0.0
2014-Jul-21 10:34N 58°58' E 005°45'0 0.0
2014-Jul-21 09:32N 58°58' E 005°45'0 0.0
2014-Jul-21 08:33N 58°58' E 005°45'0 0.0
2014-Jul-21 07:31N 58°58' E 005°45'0 0.0
2014-Jul-21 06:32N 58°58' E 005°45'0 0.0
2014-Jul-21 05:33N 58°58' E 005°45'0 0.0
2014-Jul-21 04:33N 58°58' E 005°45'0 0.0
2014-Jul-21 03:33N 58°58' E 005°45'0 0.0
2014-Jul-21 02:32N 58°58' E 005°45'0 0.0
2014-Jul-21 01:31N 58°58' E 005°45'0 0.0
2014-Jul-21 00:31N 58°58' E 005°45'0 0.0
2014-Jul-20 23:32N 58°58' E 005°45'0 0.0
2014-Jul-20 22:33N 58°58' E 005°45'0 0.0
2014-Jul-20 21:32N 58°58' E 005°45'0 0.0
2014-Jul-20 20:32N 58°58' E 005°45'0 0.0
2014-Jul-20 19:31N 58°58' E 005°45'0 0.0
2014-Jul-20 18:32N 58°58' E 005°45'0 0.0
2014-Jul-20 17:32N 58°58' E 005°45'0 0.0
2014-Jul-20 16:33N 58°58' E 005°45'0 0.0
2014-Jul-20 15:31N 58°58' E 005°45'0 0.0
2014-Jul-20 14:32N 58°58' E 005°45'0 0.0
2014-Jul-20 13:33N 58°58' E 005°45'0 0.0
2014-Jul-20 12:32N 58°58' E 005°45'0 0.0
2014-Jul-20 11:30N 58°58' E 005°45'0 0.0
2014-Jul-20 10:33N 58°58' E 005°45'0 0.0
2014-Jul-20 09:33N 58°58' E 005°45'0 0.0
2014-Jul-20 08:31N 58°58' E 005°45'0 0.0
2014-Jul-20 07:33N 58°58' E 005°45'0 0.0
2014-Jul-20 06:31N 58°58' E 005°45'0 0.0
2014-Jul-20 05:31N 58°58' E 005°45'0 0.0
2014-Jul-20 04:33N 58°58' E 005°45'0 0.0
2014-Jul-20 03:31N 58°58' E 005°45'0 0.0
2014-Jul-20 02:31N 58°58' E 005°45'0 0.0
2014-Jul-20 01:31N 58°58' E 005°45'0 0.0
2014-Jul-20 00:31N 58°58' E 005°45'0 0.0
2014-Jul-19 23:32N 58°58' E 005°45'0 0.0
2014-Jul-19 22:32N 58°58' E 005°45'0 0.0
2014-Jul-19 21:31N 58°58' E 005°45'0 0.0
2014-Jul-19 20:31N 58°58' E 005°45'0 0.0
2014-Jul-19 19:30N 58°58' E 005°45'0 0.0
2014-Jul-19 18:31N 58°58' E 005°45'0 0.0
2014-Jul-19 17:31N 58°58' E 005°45'0 0.0
2014-Jul-19 16:33N 58°58' E 005°45'0 0.0
2014-Jul-19 15:31N 58°58' E 005°45'0 0.0
2014-Jul-19 14:31N 58°58' E 005°45'0 0.0
2014-Jul-19 13:32N 58°58' E 005°45'0 0.0
2014-Jul-19 12:33N 58°58' E 005°45'0 0.0
2014-Jul-19 11:31N 58°58' E 005°45'0 0.0
2014-Jul-19 10:30N 58°58' E 005°45'0 0.0
2014-Jul-19 09:30N 58°58' E 005°45'0 0.0
2014-Jul-19 08:31N 58°58' E 005°45'0 0.0
2014-Jul-19 07:33N 58°58' E 005°45'0 0.0
2014-Jul-19 06:32N 58°58' E 005°45'0 0.0
2014-Jul-19 05:33N 58°58' E 005°45'0 0.0
2014-Jul-19 04:32N 58°58' E 005°45'0 0.0
2014-Jul-19 03:33N 58°58' E 005°45'0 0.0
2014-Jul-19 02:31N 58°58' E 005°45'0 0.0
2014-Jul-19 01:33N 58°58' E 005°45'0 0.0
2014-Jul-19 00:33N 58°58' E 005°45'  
Track history (hours):
 
Tides and Currents Weather Stations Pressure Air Temp Water Temp Dewpoint Dewpoint Depression Visibility Wind Speed Wind Dir Waves Ship Positions

Zeynalabdin Tagiyev

Last reported at 2014-Jul-29 00:18 UTC. Time now 2014-Jul-30 13:13 UTC.
Position N 49°37' W 000°37'.

Length 140 m; draft 4.8 m.

Type: Cargo ship. MMSI: 256107000.

Date/timePositionNaut miles runAvg speedWind from/ knotsBaromVisibWave heightAir tempDewpointWater temp
2014-Jul-29 00:18N 49°37' W 000°37'7 9.4
2014-Jul-28 23:32N 49°35' W 000°27'9 8.7
2014-Jul-28 22:33N 49°31' W 000°15'9 8.7
2014-Jul-28 21:33N 49°28' W 000°02'8 8.3
2014-Jul-28 20:33N 49°26' E 000°10'7 7.0
2014-Jul-28 19:33N 49°26' E 000°21'10 9.5
2014-Jul-28 18:29N 49°26' E 000°37'  
2014-Jul-26 07:23N 49°29' E 000°31'1112.7
2014-Jul-26 06:33N 49°26' E 000°16'1211.6
2014-Jul-26 05:34N 49°28' W 000°02'3 2.9
2014-Jul-26 04:33N 49°28' W 000°06'0 0.0
2014-Jul-26 03:24N 49°29' W 000°06'0 0.0
2014-Jul-26 02:26N 49°29' W 000°06'0 0.0
2014-Jul-26 01:32N 49°29' W 000°06'0 0.0
2014-Jul-26 00:33N 49°28' W 000°06'0 0.0
2014-Jul-25 23:28N 49°28' W 000°06'0 0.1
2014-Jul-25 22:31N 49°28' W 000°06'0 0.1
2014-Jul-25 21:33N 49°29' W 000°06'4 3.7
2014-Jul-25 20:33N 49°31' W 000°11'1010.0
2014-Jul-25 19:33N 49°38' W 000°21'1111.0
2014-Jul-25 18:33N 49°49' W 000°26'5310.5
2014-Jul-25 13:32N 50°33' E 000°20'1111.5
2014-Jul-25 12:33N 50°36' E 000°37'1110.6
2014-Jul-25 11:28N 50°43' E 000°52'2410.0
2014-Jul-25 09:05N 50°57' E 001°21'611.0
2014-Jul-25 08:33N 51°02' E 001°28'1312.6
2014-Jul-25 07:33N 51°11' E 001°41'1313.2
2014-Jul-25 06:33N 51°22' E 001°53'1212.4
2014-Jul-25 05:34N 51°31' E 002°06'1111.1
2014-Jul-25 04:33N 51°40' E 002°17'1010.3
2014-Jul-25 03:33N 51°48' E 002°27'9 9.3
2014-Jul-25 02:33N 51°55' E 002°37'9 9.0
2014-Jul-25 01:33N 52°02' E 002°46'22 9.1
2014-Jul-24 23:07N 52°19' E 003°10'610.3
2014-Jul-24 22:32N 52°24' E 003°16'1310.9
2014-Jul-24 21:23N 52°34' E 003°27'911.4
2014-Jul-24 20:33N 52°42' E 003°36'1311.5
2014-Jul-24 19:28N 52°51' E 003°50'1011.0
2014-Jul-24 18:32N 52°58' E 004°03'1010.3
2014-Jul-24 17:33N 53°05' E 004°15'21 9.2
2014-Jul-24 15:16N 53°23' E 004°33'7 9.5
2014-Jul-24 14:33N 53°29' E 004°39'1010.2
2014-Jul-24 13:33N 53°33' E 004°55'1111.4
2014-Jul-24 12:33N 53°37' E 005°13'1211.9
2014-Jul-24 11:32N 53°40' E 005°33'1211.6
2014-Jul-24 10:32N 53°44' E 005°51'1111.0
2014-Jul-24 09:32N 53°47' E 006°09'1510.1
2014-Jul-24 08:05N 53°51' E 006°33'6 9.6
2014-Jul-24 07:27N 53°53' E 006°43'20 9.3
2014-Jul-24 05:19N 53°58' E 007°15'7 9.7
2014-Jul-24 04:33N 53°60' E 007°27'7 7.4
2014-Jul-24 03:33N 54°07' E 007°29'10 9.9
2014-Jul-24 02:33N 54°17' E 007°25'10 9.9
2014-Jul-24 01:33N 54°27' E 007°24'10 9.6
2014-Jul-24 00:33N 54°36' E 007°23'9 9.4
2014-Jul-23 23:33N 54°46' E 007°22'1817.0
2014-Jul-23 22:31N 55°03' E 007°20'1818.1
2014-Jul-23 21:30N 55°22' E 007°18'0 0.2
2014-Jul-23 20:19N 55°22' E 007°18'19 9.0
2014-Jul-23 18:15N 55°41' E 007°16'14210.1
2014-Jul-23 04:11N 58°00' E 006°29'6 9.6
2014-Jul-23 03:33N 58°05' E 006°22'10 9.7
2014-Jul-23 02:33N 58°12' E 006°09'10 9.8
2014-Jul-23 01:33N 58°19' E 005°56'1110.0
2014-Jul-23 00:29N 58°26' E 005°42'10 9.7
2014-Jul-22 23:26N 58°35' E 005°31'910.0
2014-Jul-22 22:34N 58°43' E 005°25'1010.1
2014-Jul-22 21:33N 58°53' E 005°31'1010.0
2014-Jul-22 20:34N 59°02' E 005°36'7 6.6
2014-Jul-22 19:33N 58°59' E 005°47'1 0.7
2014-Jul-22 18:32N 58°58' E 005°45'0 0.0
2014-Jul-22 17:33N 58°58' E 005°45'0 0.0
2014-Jul-22 16:31N 58°58' E 005°45'0 0.0
2014-Jul-22 15:31N 58°58' E 005°45'0 0.0
2014-Jul-22 14:33N 58°58' E 005°45'0 0.0
2014-Jul-22 13:33N 58°58' E 005°45'0 0.0
2014-Jul-22 12:33N 58°58' E 005°45'0 0.0
2014-Jul-22 11:30N 58°58' E 005°45'0 0.0
2014-Jul-22 10:32N 58°58' E 005°45'0 0.0
2014-Jul-22 09:33N 58°58' E 005°45'0 0.0
2014-Jul-22 08:31N 58°58' E 005°45'0 0.0
2014-Jul-22 07:30N 58°58' E 005°45'0 0.0
2014-Jul-22 06:33N 58°58' E 005°45'0 0.0
2014-Jul-22 05:32N 58°58' E 005°45'0 0.0
2014-Jul-22 04:32N 58°58' E 005°45'0 0.0
2014-Jul-22 03:32N 58°58' E 005°45'0 0.0
2014-Jul-22 02:31N 58°58' E 005°45'0 0.0
2014-Jul-22 01:28N 58°58' E 005°45'0 0.0
2014-Jul-22 00:31N 58°58' E 005°45'0 0.0
2014-Jul-21 23:29N 58°58' E 005°45'0 0.0
2014-Jul-21 22:33N 58°58' E 005°45'0 0.0
2014-Jul-21 21:31N 58°58' E 005°45'0 0.0
2014-Jul-21 20:31N 58°58' E 005°45'0 0.0
2014-Jul-21 20:16N 58°58' E 005°45'0 0.0
2014-Jul-21 19:32N 58°58' E 005°45'0 0.0
2014-Jul-21 18:33N 58°58' E 005°45'0 0.0
2014-Jul-21 17:33N 58°58' E 005°45'0 0.0
2014-Jul-21 16:32N 58°58' E 005°45'0 0.0
2014-Jul-21 15:31N 58°58' E 005°45'0 0.0
2014-Jul-21 14:32N 58°58' E 005°45'0 0.0
2014-Jul-21 13:31N 58°58' E 005°45'0 0.0
2014-Jul-21 12:31N 58°58' E 005°45'0 0.0
2014-Jul-21 11:32N 58°58' E 005°45'0 0.0
2014-Jul-21 10:34N 58°58' E 005°45'0 0.0
2014-Jul-21 09:32N 58°58' E 005°45'0 0.0
2014-Jul-21 08:33N 58°58' E 005°45'0 0.0
2014-Jul-21 07:31N 58°58' E 005°45'0 0.0
2014-Jul-21 06:32N 58°58' E 005°45'0 0.0
2014-Jul-21 05:33N 58°58' E 005°45'0 0.0
2014-Jul-21 04:33N 58°58' E 005°45'0 0.0
2014-Jul-21 03:33N 58°58' E 005°45'0 0.0
2014-Jul-21 02:32N 58°58' E 005°45'0 0.0
2014-Jul-21 01:31N 58°58' E 005°45'0 0.0
2014-Jul-21 00:31N 58°58' E 005°45'0 0.0
2014-Jul-20 23:32N 58°58' E 005°45'0 0.0
2014-Jul-20 22:33N 58°58' E 005°45'0 0.0
2014-Jul-20 21:32N 58°58' E 005°45'0 0.0
2014-Jul-20 20:32N 58°58' E 005°45'0 0.0
2014-Jul-20 19:31N 58°58' E 005°45'0 0.0
2014-Jul-20 18:32N 58°58' E 005°45'0 0.0
2014-Jul-20 17:32N 58°58' E 005°45'0 0.0
2014-Jul-20 16:33N 58°58' E 005°45'0 0.0
2014-Jul-20 15:31N 58°58' E 005°45'0 0.0
2014-Jul-20 14:32N 58°58' E 005°45'0 0.0
2014-Jul-20 13:33N 58°58' E 005°45'0 0.0
2014-Jul-20 12:32N 58°58' E 005°45'0 0.0
2014-Jul-20 11:30N 58°58' E 005°45'0 0.0
2014-Jul-20 10:33N 58°58' E 005°45'0 0.0
2014-Jul-20 09:33N 58°58' E 005°45'0 0.0
2014-Jul-20 08:31N 58°58' E 005°45'0 0.0
2014-Jul-20 07:33N 58°58' E 005°45'0 0.0
2014-Jul-20 06:31N 58°58' E 005°45'0 0.0
2014-Jul-20 05:31N 58°58' E 005°45'0 0.0
2014-Jul-20 04:33N 58°58' E 005°45'0 0.0
2014-Jul-20 03:31N 58°58' E 005°45'0 0.0
2014-Jul-20 02:31N 58°58' E 005°45'0 0.0
2014-Jul-20 01:31N 58°58' E 005°45'0 0.0
2014-Jul-20 00:31N 58°58' E 005°45'0 0.0
2014-Jul-19 23:32N 58°58' E 005°45'0 0.0
2014-Jul-19 22:32N 58°58' E 005°45'0 0.0
2014-Jul-19 21:31N 58°58' E 005°45'0 0.0
2014-Jul-19 20:31N 58°58' E 005°45'0 0.0
2014-Jul-19 19:30N 58°58' E 005°45'0 0.0
2014-Jul-19 18:31N 58°58' E 005°45'0 0.0
2014-Jul-19 17:31N 58°58' E 005°45'0 0.0
2014-Jul-19 16:33N 58°58' E 005°45'0 0.0
2014-Jul-19 15:31N 58°58' E 005°45'0 0.0
2014-Jul-19 14:31N 58°58' E 005°45'0 0.0
2014-Jul-19 13:32N 58°58' E 005°45'0 0.0
2014-Jul-19 12:33N 58°58' E 005°45'0 0.0
2014-Jul-19 11:31N 58°58' E 005°45'0 0.0
2014-Jul-19 10:30N 58°58' E 005°45'0 0.0
2014-Jul-19 09:30N 58°58' E 005°45'0 0.0
2014-Jul-19 08:31N 58°58' E 005°45'0 0.0
2014-Jul-19 07:33N 58°58' E 005°45'0 0.0
2014-Jul-19 06:32N 58°58' E 005°45'0 0.0
2014-Jul-19 05:33N 58°58' E 005°45'0 0.0
2014-Jul-19 04:32N 58°58' E 005°45'0 0.0
2014-Jul-19 03:33N 58°58' E 005°45'0 0.0
2014-Jul-19 02:31N 58°58' E 005°45'0 0.0
2014-Jul-19 01:33N 58°58' E 005°45'0 0.0
2014-Jul-19 00:33N 58°58' E 005°45'  

Dump ship's entire track history